| time (UTC) | temp F | wind direction | speed MPH | gust MPH | rain 1hr in | rain 24hr in | rain mn in | humidity % | barometer mb |
| 20260904011035 | 68 | 0.0 | 0.0 | 0.00 | 0.10 | 0.10 | 13 | 1009.5 | |
| 20260904010515 | 68 | 0.0 | 0.0 | 0.00 | 0.10 | 0.10 | 13 | 1009.5 | |
| 20260904010015 | 68 | 0.0 | 0.0 | 0.00 | 0.10 | 0.10 | 13 | 1009.5 | |
| 20260904005515 | 68 | 0.0 | 0.0 | 0.00 | 0.10 | 0.10 | 14 | 1009.5 | |
| 20260904005035 | 68 | 0.0 | 0.0 | 0.00 | 0.10 | 0.10 | 14 | 1009.4 | |
| 20260904004555 | 69 | 0.0 | 0.0 | 0.00 | 0.10 | 0.10 | 14 | 1009.3 | |
| 20260904004015 | 69 | 0.0 | 0.0 | 0.00 | 0.10 | 0.10 | 16 | 1009.3 | |
| 20260904003516 | 69 | 0.0 | 0.0 | 0.00 | 0.10 | 0.10 | 18 | 1009.3 | |
| 20260904003015 | 69 | 0.0 | 0.0 | 0.00 | 0.10 | 0.10 | 19 | 1009.2 | |
| 20260904002515 | 69 | 0.0 | 0.0 | 0.00 | 0.10 | 0.10 | 20 | 1009.0 | |
| 20260904002015 | 69 | 0.0 | 0.0 | 0.00 | 0.10 | 0.10 | 20 | 1008.9 | |
| 20260904001515 | 69 | 0.0 | 0.0 | 0.00 | 0.10 | 0.10 | 19 | 1008.9 | |
| 20260904001015 | 69 | 0.0 | 0.0 | 0.00 | 0.10 | 0.10 | 19 | 1008.8 | |
| 20260904000515 | 70 | 0.0 | 0.0 | 0.00 | 0.10 | 0.10 | 19 | 1008.6 | |
| 20260904000015 | 70 | 0.0 | 0.0 | 0.00 | 0.10 | 0.10 | 20 | 1008.5 | |
| 20260903235515 | 70 | 0.0 | 0.0 | 0.00 | 0.10 | 0.10 | 20 | 1008.5 | |
| 20260903235035 | 70 | 0.0 | 0.0 | 0.00 | 0.10 | 0.10 | 22 | 1008.7 | |
| 20260903234515 | 70 | 0.0 | 0.0 | 0.00 | 0.10 | 0.10 | 25 | 1008.8 | |
| 20260903234015 | 71 | 0.0 | 0.0 | 0.00 | 0.10 | 0.10 | 26 | 1008.8 | |
| 20260903233515 | 71 | 0.0 | 0.0 | 0.00 | 0.10 | 0.10 | 25 | 1008.7 | |
| 20260903233015 | 71 | 0.0 | 0.0 | 0.00 | 0.10 | 0.10 | 26 | 1008.6 | |
| 20260903232515 | 71 | 0.0 | 0.0 | 0.00 | 0.10 | 0.10 | 28 | 1008.7 | |
| 20260903232015 | 71 | 0.0 | 0.0 | 0.00 | 0.10 | 0.10 | 28 | 1008.7 | |
| 20260903231516 | 72 | 0.0 | 0.0 | 0.00 | 0.10 | 0.10 | 29 | 1008.7 | |
| 20260903231015 | 72 | 0.0 | 0.0 | 0.00 | 0.10 | 0.10 | 29 | 1008.9 | |
| 20260903230515 | 72 | 0.0 | 0.0 | 0.00 | 0.10 | 0.10 | 30 | 1008.9 | |
| 20260903230015 | 72 | 0.0 | 0.0 | 0.00 | 0.10 | 0.10 | 31 | 1008.9 | |
| 20260903225515 | 72 | 0.0 | 0.0 | 0.00 | 0.10 | 0.10 | 32 | 1008.8 | |
| 20260903225015 | 72 | 0.0 | 0.0 | 0.00 | 0.10 | 0.10 | 34 | 1008.7 | |
| 20260903224515 | 72 | 0.0 | 0.0 | 0.00 | 0.10 | 0.10 | 35 | 1008.6 | |
| 20260903224015 | 73 | 0.0 | 0.0 | 0.00 | 0.10 | 0.10 | 39 | 1008.6 | |
| 20260903223535 | 73 | 0.0 | 0.0 | 0.00 | 0.10 | 0.10 | 42 | 1008.6 | |
| 20260903223015 | 73 | 0.0 | 0.0 | 0.00 | 0.10 | 0.10 | 43 | 1008.7 | |
| 20260903222515 | 73 | 0.0 | 0.0 | 0.00 | 0.10 | 0.10 | 43 | 1008.9 | |
| 20260903222015 | 73 | 0.0 | 0.0 | 0.00 | 0.10 | 0.10 | 43 | 1009.0 | |
| 20260903221535 | 73 | 0.0 | 0.0 | 0.00 | 0.10 | 0.10 | 43 | 1009.1 | |
| 20260903221035 | 73 | 0.0 | 0.0 | 0.00 | 0.10 | 0.10 | 45 | 1009.2 | |
| 20260903220515 | 73 | 0.0 | 0.0 | 0.00 | 0.10 | 0.10 | 47 | 1009.2 | |
| 20260903220015 | 73 | 0.0 | 0.0 | 0.00 | 0.10 | 0.10 | 47 | 1009.2 | |
| 20260903215515 | 73 | 0.0 | 0.0 | 0.00 | 0.10 | 0.10 | 49 | 1009.1 | |
| 20260903215015 | 73 | 0.0 | 0.0 | 0.00 | 0.10 | 0.10 | 51 | 1009.1 | |
| 20260903214515 | 73 | 0.0 | 0.0 | 0.00 | 0.10 | 0.10 | 52 | 1009.2 | |
| 20260903214015 | 74 | 0.0 | 0.0 | 0.00 | 0.10 | 0.10 | 54 | 1009.2 | |
| 20260903213515 | 74 | 0.0 | 0.0 | 0.00 | 0.10 | 0.10 | 53 | 1009.1 | |
| 20260903213035 | 74 | 0.0 | 0.0 | 0.00 | 0.10 | 0.10 | 54 | 1009.1 | |
| 20260903212555 | 74 | 0.0 | 0.0 | 0.00 | 0.10 | 0.10 | 54 | 1009.0 | |
| 20260903212035 | 74 | 0.0 | 0.0 | 0.00 | 0.10 | 0.10 | 52 | 1009.1 | |
| 20260903211535 | 74 | 0.0 | 0.0 | 0.00 | 0.10 | 0.10 | 51 | 1009.2 | |
| 20260903211015 | 74 | 0.0 | 0.0 | 0.00 | 0.10 | 0.10 | 58 | 1009.2 | |
| 20260903210515 | 74 | 0.0 | 2.0 | 0.00 | 0.10 | 0.10 | 56 | 1009.2 | |
| 20260903210015 | 74 | 277 | 0.0 | 2.0 | 0.00 | 0.10 | 0.10 | 56 | 1009.3 |
| 20260903205515 | 74 | 277 | 0.0 | 2.0 | 0.00 | 0.10 | 0.10 | 50 | 1009.1 |
| 20260903205015 | 74 | 0.0 | 0.0 | 0.00 | 0.10 | 0.10 | 53 | 1009.1 | |
| 20260903204515 | 74 | 0.0 | 0.0 | 0.00 | 0.10 | 0.10 | 55 | 1009.2 | |
| 20260903204015 | 74 | 0.0 | 0.0 | 0.00 | 0.10 | 0.10 | 52 | 1009.1 | |
| 20260903203555 | 74 | 0.0 | 0.0 | 0.00 | 0.10 | 0.10 | 56 | 1009.2 | |
| 20260903203015 | 74 | 0.0 | 0.0 | 0.00 | 0.10 | 0.10 | 58 | 1009.2 | |
| 20260903202515 | 74 | 0.0 | 0.0 | 0.00 | 0.10 | 0.10 | 65 | 1009.2 | |
| 20260903202015 | 74 | 0.0 | 0.0 | 0.00 | 0.10 | 0.10 | 65 | 1009.2 | |
| 20260903201515 | 73 | 0.0 | 0.0 | 0.00 | 0.10 | 0.10 | 64 | 1009.3 | |
| 20260903201015 | 73 | 0.0 | 0.0 | 0.00 | 0.10 | 0.10 | 61 | 1009.3 | |
| 20260903200515 | 73 | 0.0 | 0.0 | 0.00 | 0.10 | 0.10 | 63 | 1009.4 | |
| 20260903200015 | 73 | 0.0 | 0.0 | 0.00 | 0.10 | 0.10 | 63 | 1009.5 | |
| 20260903195515 | 73 | 0.0 | 0.0 | 0.00 | 0.10 | 0.10 | 60 | 1009.5 | |
| 20260903195015 | 73 | 0.0 | 0.0 | 0.00 | 0.10 | 0.10 | 58 | 1009.6 | |
| 20260903194515 | 73 | 0.0 | 0.0 | 0.00 | 0.10 | 0.10 | 57 | 1009.7 | |
| 20260903194035 | 73 | 0.0 | 0.0 | 0.00 | 0.10 | 0.10 | 55 | 1009.8 | |
| 20260903193514 | 73 | 0.0 | 0.0 | 0.00 | 0.10 | 0.10 | 59 | 1009.8 | |
| 20260903193014 | 73 | 0.0 | 3.0 | 0.00 | 0.10 | 0.10 | 65 | 1009.9 | |
| 20260903192514 | 73 | 278 | 1.0 | 3.0 | 0.00 | 0.10 | 0.10 | 65 | 1010.0 |
| 20260903192037 | 73 | 355 | 0.0 | 2.0 | 0.00 | 0.10 | 0.10 | 62 | 1010.0 |
| 20260903191516 | 73 | 48 | 0.0 | 2.0 | 0.00 | 0.10 | 0.10 | 61 | 1010.0 |
| 20260903191017 | 72 | 0.0 | 1.0 | 0.00 | 0.10 | 0.10 | 64 | 1010.0 | |
| 20260903190517 | 72 | 88 | 0.0 | 1.0 | 0.00 | 0.10 | 0.10 | 62 | 1010.0 |
| 20260903190017 | 72 | 88 | 0.0 | 1.0 | 0.00 | 0.10 | 0.10 | 61 | 1009.9 |
| 20260903185517 | 72 | 0.0 | 2.0 | 0.00 | 0.10 | 0.10 | 63 | 1010.0 | |
| 20260903185017 | 72 | 65 | 0.0 | 2.0 | 0.00 | 0.10 | 0.10 | 64 | 1010.1 |
| 20260903184517 | 72 | 0.0 | 1.0 | 0.00 | 0.10 | 0.10 | 61 | 1010.3 | |
| 20260903184017 | 72 | 4 | 0.0 | 2.0 | 0.00 | 0.10 | 0.10 | 60 | 1010.3 |
| 20260903183517 | 71 | 25 | 0.0 | 2.0 | 0.00 | 0.10 | 0.10 | 55 | 1010.4 |
| 20260903183017 | 71 | 0.0 | 0.0 | 0.00 | 0.10 | 0.10 | 55 | 1010.4 | |
| 20260903182537 | 71 | 0.0 | 0.0 | 0.00 | 0.10 | 0.10 | 54 | 1010.4 | |
| 20260903182016 | 71 | 0.0 | 1.0 | 0.00 | 0.10 | 0.10 | 53 | 1010.3 | |
| 20260903181516 | 71 | 311 | 0.0 | 1.0 | 0.00 | 0.10 | 0.10 | 53 | 1010.4 |
| 20260903181016 | 71 | 309 | 0.0 | 1.0 | 0.00 | 0.10 | 0.10 | 48 | 1010.5 |
| 20260903180617 | 70 | 311 | 0.0 | 4.0 | 0.00 | 0.10 | 0.10 | 46 | 1010.6 |
| 20260903180016 | 70 | 167 | 0.0 | 4.0 | 0.00 | 0.10 | 0.10 | 43 | 1010.6 |
| 20260903175536 | 70 | 23 | 0.0 | 3.0 | 0.00 | 0.10 | 0.10 | 41 | 1010.6 |
| 20260903175016 | 70 | 17 | 0.0 | 2.0 | 0.00 | 0.10 | 0.10 | 42 | 1010.7 |
| 20260903174536 | 69 | 15 | 0.0 | 2.0 | 0.00 | 0.10 | 0.10 | 41 | 1010.8 |
| 20260903174016 | 69 | 88 | 0.0 | 1.0 | 0.00 | 0.10 | 0.10 | 45 | 1010.9 |
| 20260903173516 | 69 | 0.0 | 0.0 | 0.00 | 0.10 | 0.10 | 42 | 1010.9 | |
| 20260903173016 | 69 | 0.0 | 0.0 | 0.00 | 0.10 | 0.10 | 44 | 1010.9 | |
| 20260903172516 | 69 | 0.0 | 0.0 | 0.00 | 0.10 | 0.10 | 45 | 1011.0 | |
| 20260903172037 | 70 | 0.0 | 1.0 | 0.00 | 0.10 | 0.10 | 44 | 1011.0 | |
| 20260903171516 | 70 | 49 | 0.0 | 2.0 | 0.00 | 0.10 | 0.10 | 43 | 1011.0 |
| 20260903171037 | 70 | 64 | 0.0 | 3.0 | 0.00 | 0.10 | 0.10 | 45 | 1010.9 |
| 20260903170516 | 70 | 330 | 0.0 | 3.0 | 0.00 | 0.10 | 0.10 | 37 | 1010.9 |
| 20260903170016 | 70 | 0.0 | 0.0 | 0.00 | 0.10 | 0.10 | 30 | 1010.7 | |
| 20260903165516 | 69 | 0.0 | 0.0 | 0.00 | 0.10 | 0.10 | 30 | 1010.7 | |
| 20260903165036 | 69 | 0.0 | 0.0 | 0.00 | 0.10 | 0.10 | 32 | 1010.8 | |
| 20260903164516 | 69 | 0.0 | 2.0 | 0.00 | 0.10 | 0.10 | 35 | 1010.8 | |
| 20260903164017 | 69 | 84 | 0.0 | 2.0 | 0.00 | 0.10 | 0.10 | 27 | 1010.9 |
| 20260903163516 | 69 | 0.0 | 0.0 | 0.00 | 0.10 | 0.10 | 24 | 1010.8 | |
| 20260903163016 | 69 | 0.0 | 2.0 | 0.00 | 0.10 | 0.10 | 23 | 1010.8 | |
| 20260903162516 | 68 | 270 | 0.0 | 2.0 | 0.00 | 0.10 | 0.10 | 27 | 1010.9 |
| 20260903162016 | 68 | 330 | 0.0 | 1.0 | 0.00 | 0.10 | 0.10 | 23 | 1010.9 |
| 20260903161536 | 68 | 330 | 0.0 | 1.0 | 0.00 | 0.10 | 0.10 | 26 | 1011.0 |
| 20260903161036 | 67 | 273 | 0.0 | 2.0 | 0.00 | 0.10 | 0.10 | 24 | 1011.0 |
| 20260903160516 | 67 | 273 | 0.0 | 2.0 | 0.00 | 0.10 | 0.10 | 19 | 1011.0 |
| 20260903160016 | 67 | 0.0 | 2.0 | 0.00 | 0.10 | 0.10 | 18 | 1011.0 | |
| 20260903155516 | 67 | 346 | 0.0 | 2.0 | 0.00 | 0.10 | 0.10 | 19 | 1011.0 |
| 20260903155016 | 67 | 346 | 0.0 | 2.0 | 0.00 | 0.10 | 0.10 | 16 | 1011.1 |
| 20260903154516 | 67 | 12 | 0.0 | 2.0 | 0.00 | 0.10 | 0.10 | 13 | 1011.0 |
| 20260903154016 | 67 | 6 | 0.0 | 2.0 | 0.00 | 0.10 | 0.10 | 11 | 1011.1 |
| 20260903153516 | 66 | 190 | 0.0 | 1.0 | 0.00 | 0.10 | 0.10 | 11 | 1011.3 |
| 20260903153016 | 66 | 0.0 | 0.0 | 0.00 | 0.10 | 0.10 | 10 | 1011.3 | |
| 20260903152516 | 66 | 0.0 | 0.0 | 0.00 | 0.10 | 0.10 | 10 | 1011.5 | |
| 20260903152016 | 66 | 0.0 | 1.0 | 0.00 | 0.10 | 0.10 | 10 | 1011.5 | |
| 20260903151516 | 66 | 190 | 0.0 | 1.0 | 0.00 | 0.10 | 0.10 | 9 | 1011.6 |
| 20260903151016 | 66 | 0.0 | 2.0 | 0.00 | 0.10 | 0.10 | 9 | 1011.7 | |
| 20260903150516 | 65 | 190 | 0.0 | 2.0 | 0.00 | 0.10 | 0.10 | 9 | 1011.6 |
| 20260903150016 | 65 | 180 | 0.0 | 1.0 | 0.00 | 0.10 | 0.10 | 10 | 1011.5 |
| 20260903145536 | 65 | 0.0 | 0.0 | 0.00 | 0.10 | 0.10 | 10 | 1011.7 | |
| 20260903145016 | 65 | 0.0 | 1.0 | 0.00 | 0.10 | 0.10 | 11 | 1011.7 | |
| 20260903144536 | 65 | 180 | 0.0 | 1.0 | 0.00 | 0.10 | 0.10 | 11 | 1011.8 |
| 20260903144016 | 65 | 0.0 | 1.0 | 0.00 | 0.10 | 0.10 | 10 | 1011.8 | |
| 20260903143516 | 64 | 180 | 0.0 | 1.0 | 0.00 | 0.10 | 0.10 | 10 | 1011.8 |
| 20260903143056 | 64 | 180 | 0.0 | 1.0 | 0.00 | 0.10 | 0.10 | 11 | 1011.8 |
| 20260903142516 | 64 | 180 | 0.0 | 1.0 | 0.00 | 0.10 | 0.10 | 9 | 1011.8 |
| 20260903142016 | 64 | 0.0 | 0.0 | 0.00 | 0.10 | 0.10 | 9 | 1011.8 | |
| 20260903141516 | 64 | 0.0 | 0.0 | 0.00 | 0.10 | 0.10 | 9 | 1011.8 | |
| 20260903141016 | 64 | 0.0 | 0.0 | 0.00 | 0.10 | 0.10 | 9 | 1011.8 | |
| 20260903140516 | 64 | 0.0 | 0.0 | 0.00 | 0.10 | 0.10 | 9 | 1012.0 | |
| 20260903140016 | 64 | 0.0 | 0.0 | 0.00 | 0.10 | 0.10 | 9 | 1012.1 | |
| 20260903135536 | 64 | 0.0 | 0.0 | 0.00 | 0.10 | 0.10 | 9 | 1012.2 | |
| 20260903135016 | 64 | 0.0 | 0.0 | 0.00 | 0.10 | 0.10 | 9 | 1012.2 | |
| 20260903134556 | 63 | 0.0 | 0.0 | 0.00 | 0.10 | 0.10 | 9 | 1012.2 | |
| 20260903134016 | 63 | 0.0 | 0.0 | 0.00 | 0.10 | 0.10 | 10 | 1012.2 | |
| 20260903133516 | 63 | 0.0 | 0.0 | 0.00 | 0.10 | 0.10 | 10 | 1012.1 | |
| 20260903133016 | 63 | 0.0 | 0.0 | 0.00 | 0.10 | 0.10 | 10 | 1012.1 | |
| 20260903132516 | 63 | 0.0 | 0.0 | 0.00 | 0.10 | 0.10 | 10 | 1012.1 | |
| 20260903132016 | 63 | 0.0 | 0.0 | 0.00 | 0.10 | 0.10 | 10 | 1012.1 | |
| 20260903131516 | 63 | 0.0 | 0.0 | 0.00 | 0.10 | 0.10 | 10 | 1012.0 | |
| 20260903131016 | 63 | 0.0 | 0.0 | 0.00 | 0.10 | 0.10 | 10 | 1012.0 | |
| 20260903130516 | 63 | 0.0 | 0.0 | 0.00 | 0.10 | 0.10 | 10 | 1012.1 | |
| 20260903130016 | 63 | 0.0 | 0.0 | 0.00 | 0.10 | 0.10 | 10 | 1012.2 | |
| 20260903125516 | 63 | 0.0 | 0.0 | 0.00 | 0.10 | 0.10 | 9 | 1012.2 | |
| 20260903125016 | 63 | 0.0 | 0.0 | 0.00 | 0.10 | 0.10 | 9 | 1012.2 | |
| 20260903124516 | 63 | 0.0 | 0.0 | 0.00 | 0.10 | 0.10 | 10 | 1012.2 | |
| 20260903124016 | 63 | 0.0 | 0.0 | 0.00 | 0.10 | 0.10 | 10 | 1012.3 | |
| 20260903123516 | 63 | 0.0 | 0.0 | 0.00 | 0.10 | 0.10 | 10 | 1012.4 | |
| 20260903123016 | 63 | 0.0 | 0.0 | 0.00 | 0.10 | 0.10 | 10 | 1012.6 | |
| 20260903122515 | 62 | 0.0 | 0.0 | 0.00 | 0.10 | 0.10 | 10 | 1012.7 | |
| 20260903122016 | 62 | 0.0 | 0.0 | 0.00 | 0.10 | 0.10 | 10 | 1012.8 | |
| 20260903121515 | 62 | 0.0 | 0.0 | 0.00 | 0.10 | 0.10 | 10 | 1012.7 | |
| 20260903121016 | 62 | 0.0 | 0.0 | 0.00 | 0.10 | 0.10 | 10 | 1012.7 | |
| 20260903120516 | 62 | 0.0 | 0.0 | 0.00 | 0.10 | 0.10 | 10 | 1012.6 | |
| 20260903115516 | 62 | 0.0 | 0.0 | 0.00 | 0.10 | 0.10 | 10 | 1012.7 | |
| 20260903115016 | 62 | 0.0 | 0.0 | 0.00 | 0.10 | 0.10 | 10 | 1012.9 | |
| 20260903114516 | 62 | 0.0 | 0.0 | 0.00 | 0.10 | 0.10 | 10 | 1013.0 | |
| 20260903114016 | 62 | 0.0 | 0.0 | 0.00 | 0.10 | 0.10 | 10 | 1013.0 | |
| 20260903113536 | 62 | 0.0 | 0.0 | 0.00 | 0.10 | 0.10 | 11 | 1013.0 | |
| 20260903113016 | 62 | 0.0 | 0.0 | 0.00 | 0.10 | 0.10 | 11 | 1013.0 | |
| 20260903112535 | 62 | 0.0 | 0.0 | 0.00 | 0.10 | 0.10 | 11 | 1013.0 | |
| 20260903112016 | 62 | 0.0 | 0.0 | 0.00 | 0.10 | 0.10 | 11 | 1013.0 | |
| 20260903111515 | 62 | 0.0 | 0.0 | 0.00 | 0.10 | 0.10 | 11 | 1013.0 | |
| 20260903111016 | 62 | 0.0 | 0.0 | 0.00 | 0.10 | 0.10 | 11 | 1012.9 | |
| 20260903110516 | 62 | 0.0 | 0.0 | 0.00 | 0.10 | 0.10 | 11 | 1012.9 | |
| 20260903110035 | 62 | 0.0 | 0.0 | 0.00 | 0.10 | 0.10 | 11 | 1012.8 | |
| 20260903105515 | 62 | 0.0 | 0.0 | 0.00 | 0.10 | 0.10 | 11 | 1012.9 | |
| 20260903105015 | 62 | 0.0 | 0.0 | 0.00 | 0.10 | 0.10 | 12 | 1013.0 | |
| 20260903104516 | 62 | 0.0 | 0.0 | 0.00 | 0.10 | 0.10 | 12 | 1013.0 | |
| 20260903104015 | 62 | 0.0 | 0.0 | 0.01 | 0.10 | 0.10 | 12 | 1012.9 | |
| 20260903103515 | 62 | 0.0 | 0.0 | 0.02 | 0.10 | 0.10 | 12 | 1012.8 | |
| 20260903103035 | 62 | 0.0 | 0.0 | 0.02 | 0.10 | 0.10 | 13 | 1012.9 | |
| 20260903102515 | 62 | 0.0 | 0.0 | 0.02 | 0.10 | 0.10 | 13 | 1012.9 | |
| 20260903102055 | 62 | 0.0 | 0.0 | 0.02 | 0.10 | 0.10 | 13 | 1013.0 | |
| 20260903101515 | 62 | 0.0 | 0.0 | 0.03 | 0.10 | 0.10 | 13 | 1013.1 | |
| 20260903101015 | 62 | 0.0 | 0.0 | 0.03 | 0.10 | 0.10 | 13 | 1013.1 | |
| 20260903100515 | 62 | 0.0 | 0.0 | 0.05 | 0.10 | 0.10 | 14 | 1012.9 | |
| 20260903100015 | 62 | 0.0 | 0.0 | 0.06 | 0.10 | 0.10 | 14 | 1012.9 | |
| 20260903095535 | 62 | 0.0 | 0.0 | 0.06 | 0.10 | 0.10 | 14 | 1012.9 | |
| 20260903095015 | 62 | 0.0 | 0.0 | 0.07 | 0.10 | 0.10 | 14 | 1012.9 | |
| 20260903094515 | 62 | 0.0 | 0.0 | 0.07 | 0.10 | 0.10 | 14 | 1013.0 | |
| 20260903094015 | 62 | 0.0 | 0.0 | 0.06 | 0.09 | 0.09 | 14 | 1013.1 | |
| 20260903093515 | 62 | 0.0 | 0.0 | 0.05 | 0.08 | 0.08 | 15 | 1013.1 | |
| 20260903093015 | 62 | 0.0 | 0.0 | 0.05 | 0.08 | 0.08 | 15 | 1013.1 | |
| 20260903092515 | 62 | 0.0 | 0.0 | 0.05 | 0.08 | 0.08 | 15 | 1013.1 | |
| 20260903092015 | 62 | 0.0 | 0.0 | 0.05 | 0.08 | 0.08 | 16 | 1013.2 | |
| 20260903091515 | 62 | 0.0 | 0.0 | 0.04 | 0.07 | 0.07 | 16 | 1013.4 | |
| 20260903091015 | 62 | 0.0 | 0.0 | 0.04 | 0.07 | 0.07 | 16 | 1013.4 | |
| 20260903090515 | 62 | 0.0 | 2.0 | 0.02 | 0.05 | 0.05 | 17 | 1013.5 | |
| 20260903090015 | 62 | 179 | 0.0 | 2.0 | 0.01 | 0.04 | 0.04 | 18 | 1013.5 |
| 20260903085515 | 62 | 0.0 | 0.0 | 0.01 | 0.04 | 0.04 | 19 | 1013.3 | |
| 20260903085015 | 62 | 0.0 | 0.0 | 0.00 | 0.03 | 0.03 | 19 | 1013.3 | |
| 20260903084515 | 62 | 0.0 | 0.0 | 0.02 | 0.03 | 0.03 | 20 | 1013.3 | |
| 20260903084015 | 62 | 0.0 | 0.0 | 0.03 | 0.03 | 0.03 | 19 | 1013.5 | |
| 20260903083515 | 62 | 0.0 | 0.0 | 0.03 | 0.03 | 0.03 | 20 | 1013.4 | |
| 20260903083015 | 62 | 0.0 | 0.0 | 0.03 | 0.03 | 0.03 | 21 | 1013.3 | |
| 20260903082515 | 63 | 0.0 | 0.0 | 0.03 | 0.03 | 0.03 | 22 | 1013.4 | |
| 20260903082015 | 63 | 0.0 | 0.0 | 0.03 | 0.03 | 0.03 | 23 | 1013.5 | |
| 20260903081535 | 63 | 0.0 | 0.0 | 0.03 | 0.03 | 0.03 | 25 | 1013.6 | |
| 20260903081015 | 63 | 0.0 | 0.0 | 0.03 | 0.03 | 0.03 | 28 | 1013.5 | |
| 20260903080515 | 63 | 0.0 | 0.0 | 0.03 | 0.03 | 0.03 | 31 | 1013.4 | |
| 20260903080015 | 63 | 0.0 | 0.0 | 0.03 | 0.03 | 0.03 | 34 | 1013.7 | |
| 20260903075515 | 63 | 0.0 | 0.0 | 0.03 | 0.03 | 0.03 | 37 | 1013.7 | |
| 20260903075035 | 63 | 0.0 | 0.0 | 0.03 | 0.03 | 0.03 | 41 | 1013.8 | |
| 20260903074515 | 63 | 0.0 | 0.0 | 0.01 | 0.01 | 0.01 | 42 | 1013.6 | |
| 20260903074015 | 63 | 0.0 | 0.0 | 0.00 | 0.00 | 0.00 | 40 | 1013.5 | |
| 20260903073515 | 63 | 0.0 | 0.0 | 0.00 | 0.00 | 0.00 | 39 | 1013.4 | |
| 20260903073015 | 63 | 0.0 | 0.0 | 0.00 | 0.00 | 0.00 | 41 | 1013.5 | |
| 20260903072515 | 63 | 0.0 | 0.0 | 0.00 | 0.00 | 0.00 | 41 | 1013.7 | |
| 20260903072015 | 63 | 0.0 | 0.0 | 0.00 | 0.00 | 0.00 | 40 | 1013.8 | |
| 20260903071515 | 63 | 0.0 | 0.0 | 0.00 | 0.00 | 0.00 | 41 | 1013.7 | |
| 20260903071015 | 63 | 0.0 | 0.0 | 0.00 | 0.00 | 0.00 | 41 | 1013.7 | |
| 20260903070515 | 63 | 0.0 | 0.0 | 0.00 | 0.00 | 0.00 | 40 | 1013.6 | |
| 20260903070015 | 63 | 0.0 | 0.0 | 0.00 | 0.00 | 0.00 | 38 | 1013.8 | |
| 20260903065615 | 63 | 0.0 | 0.0 | 0.00 | 0.00 | 0.00 | 39 | 1013.9 | |
| 20260903065015 | 63 | 0.0 | 0.0 | 0.00 | 0.00 | 0.00 | 39 | 1014.1 | |
| 20260903064515 | 63 | 0.0 | 0.0 | 0.00 | 0.00 | 0.00 | 38 | 1014.2 | |
| 20260903064015 | 63 | 0.0 | 0.0 | 0.00 | 0.00 | 0.00 | 37 | 1014.4 | |
| 20260903063515 | 63 | 0.0 | 0.0 | 0.00 | 0.00 | 0.00 | 39 | 1014.6 | |
| 20260903063015 | 63 | 0.0 | 0.0 | 0.00 | 0.00 | 0.00 | 39 | 1014.9 | |
| 20260903062515 | 63 | 0.0 | 0.0 | 0.00 | 0.00 | 0.00 | 37 | 1015.0 | |
| 20260903062015 | 63 | 0.0 | 0.0 | 0.00 | 0.00 | 0.00 | 36 | 1015.0 | |
| 20260903061515 | 63 | 0.0 | 0.0 | 0.00 | 0.00 | 0.00 | 38 | 1015.1 | |
| 20260903061015 | 63 | 0.0 | 0.0 | 0.00 | 0.00 | 0.00 | 37 | 1015.2 | |
| 20260903060515 | 63 | 0.0 | 0.0 | 0.00 | 0.00 | 0.00 | 35 | 1015.3 | |
| 20260903060015 | 63 | 0.0 | 0.0 | 0.00 | 0.00 | 0.00 | 34 | 1015.4 | |
| 20260903055515 | 63 | 0.0 | 0.0 | 0.00 | 0.00 | 0.00 | 35 | 1015.6 | |
| 20260903055015 | 63 | 0.0 | 0.0 | 0.00 | 0.00 | 0.00 | 37 | 1015.7 | |
| 20260903054515 | 63 | 0.0 | 0.0 | 0.00 | 0.00 | 0.00 | 36 | 1015.8 | |
| 20260903054015 | 63 | 0.0 | 0.0 | 0.00 | 0.00 | 0.00 | 35 | 1015.8 | |
| 20260903053515 | 63 | 0.0 | 0.0 | 0.00 | 0.00 | 0.00 | 34 | 1015.9 | |
| 20260903053015 | 63 | 0.0 | 0.0 | 0.00 | 0.00 | 0.00 | 35 | 1015.9 | |
| 20260903052515 | 63 | 0.0 | 0.0 | 0.00 | 0.00 | 0.00 | 37 | 1015.9 | |
| 20260903052055 | 63 | 0.0 | 0.0 | 0.00 | 0.00 | 0.00 | 38 | 1015.9 | |
| 20260903051515 | 63 | 0.0 | 0.0 | 0.00 | 0.00 | 0.00 | 39 | 1015.8 | |
| 20260903051035 | 63 | 0.0 | 0.0 | 0.00 | 0.00 | 0.00 | 40 | 1015.7 | |
| 20260903050515 | 63 | 0.0 | 0.0 | 0.00 | 0.00 | 0.00 | 39 | 1015.6 | |
| 20260903050017 | 63 | 0.0 | 0.0 | 0.00 | 0.00 | 0.00 | 39 | 1015.5 | |
| 20260903045517 | 63 | 0.0 | 0.0 | 0.00 | 0.00 | 0.00 | 40 | 1015.6 | |
| 20260903045057 | 64 | 0.0 | 0.0 | 0.00 | 0.00 | 0.00 | 41 | 1015.7 | |
| 20260903044517 | 64 | 0.0 | 0.0 | 0.00 | 0.00 | 0.00 | 41 | 1015.8 | |
| 20260903044016 | 64 | 0.0 | 0.0 | 0.00 | 0.00 | 0.00 | 41 | 1016.0 | |
| 20260903043517 | 64 | 0.0 | 0.0 | 0.00 | 0.00 | 0.00 | 43 | 1016.2 | |
| 20260903043017 | 64 | 0.0 | 0.0 | 0.00 | 0.00 | 0.00 | 44 | 1016.3 | |
| 20260903042517 | 64 | 0.0 | 0.0 | 0.00 | 0.00 | 0.00 | 45 | 1016.2 | |
| 20260903042017 | 64 | 0.0 | 0.0 | 0.00 | 0.00 | 0.00 | 45 | 1016.2 | |
| 20260903041517 | 64 | 0.0 | 0.0 | 0.00 | 0.00 | 0.00 | 45 | 1016.3 | |
| 20260903041017 | 64 | 0.0 | 0.0 | 0.00 | 0.00 | 0.00 | 46 | 1016.1 | |
| 20260903040517 | 64 | 0.0 | 0.0 | 0.00 | 0.00 | 0.00 | 45 | 1016.0 | |
| 20260903040017 | 64 | 0.0 | 0.0 | 0.00 | 0.00 | 0.00 | 45 | 1016.1 | |
| 20260903035516 | 64 | 0.0 | 0.0 | 0.00 | 0.00 | 0.00 | 46 | 1016.1 | |
| 20260903035016 | 64 | 0.0 | 0.0 | 0.00 | 0.00 | 0.00 | 47 | 1016.1 | |
| 20260903034516 | 64 | 0.0 | 0.0 | 0.00 | 0.00 | 0.00 | 50 | 1016.0 | |
| 20260903034036 | 64 | 0.0 | 0.0 | 0.00 | 0.00 | 0.00 | 49 | 1016.0 | |
| 20260903033516 | 64 | 0.0 | 0.0 | 0.00 | 0.00 | 0.00 | 50 | 1016.1 | |
| 20260903033016 | 64 | 0.0 | 0.0 | 0.00 | 0.00 | 0.00 | 51 | 1016.3 | |
| 20260903032516 | 64 | 0.0 | 0.0 | 0.00 | 0.00 | 0.00 | 52 | 1016.3 | |
| 20260903032016 | 64 | 0.0 | 0.0 | 0.00 | 0.00 | 0.00 | 53 | 1016.4 | |
| 20260903031516 | 64 | 0.0 | 0.0 | 0.00 | 0.00 | 0.00 | 54 | 1016.6 | |
| 20260903031036 | 64 | 0.0 | 0.0 | 0.00 | 0.00 | 0.00 | 55 | 1016.6 | |
| 20260903030516 | 64 | 0.0 | 0.0 | 0.00 | 0.00 | 0.00 | 56 | 1016.6 | |
| 20260903030036 | 64 | 0.0 | 0.0 | 0.00 | 0.00 | 0.00 | 56 | 1016.7 | |
| 20260903025516 | 64 | 0.0 | 0.0 | 0.00 | 0.00 | 0.00 | 56 | 1016.8 | |
| 20260903025016 | 64 | 0.0 | 0.0 | 0.00 | 0.00 | 0.00 | 55 | 1016.9 | |
| 20260903024517 | 64 | 0.0 | 0.0 | 0.00 | 0.00 | 0.00 | 56 | 1016.9 | |
| 20260903024016 | 64 | 0.0 | 0.0 | 0.00 | 0.00 | 0.00 | 59 | 1016.9 | |
| 20260903023516 | 64 | 0.0 | 0.0 | 0.00 | 0.00 | 0.00 | 60 | 1016.9 | |
| 20260903023016 | 64 | 0.0 | 0.0 | 0.00 | 0.00 | 0.00 | 60 | 1017.0 | |
| 20260903022516 | 64 | 0.0 | 0.0 | 0.00 | 0.00 | 0.00 | 61 | 1017.0 | |
| 20260903022016 | 64 | 0.0 | 0.0 | 0.00 | 0.00 | 0.00 | 60 | 1017.1 | |
| 20260903021516 | 64 | 0.0 | 0.0 | 0.00 | 0.00 | 0.00 | 61 | 1017.1 | |
| 20260903021036 | 64 | 0.0 | 0.0 | 0.00 | 0.00 | 0.00 | 61 | 1016.9 | |
| 20260903020516 | 64 | 0.0 | 0.0 | 0.00 | 0.00 | 0.00 | 63 | 1017.0 | |
| 20260903020016 | 64 | 0.0 | 0.0 | 0.00 | 0.00 | 0.00 | 64 | 1017.0 | |
| 20260903015536 | 64 | 0.0 | 0.0 | 0.00 | 0.00 | 0.00 | 64 | 1017.1 | |
| 20260903015016 | 64 | 0.0 | 0.0 | 0.00 | 0.00 | 0.00 | 64 | 1017.3 | |
| 20260903014516 | 64 | 0.0 | 0.0 | 0.00 | 0.00 | 0.00 | 64 | 1017.4 | |
| 20260903014016 | 64 | 0.0 | 0.0 | 0.00 | 0.00 | 0.00 | 65 | 1017.4 | |
| 20260903013516 | 64 | 0.0 | 2.0 | 0.00 | 0.00 | 0.00 | 65 | 1017.2 | |
| 20260903013016 | 64 | 235 | 0.0 | 2.0 | 0.00 | 0.00 | 0.00 | 66 | 1017.2 |
| 20260903012536 | 64 | 0.0 | 2.0 | 0.00 | 0.00 | 0.00 | 67 | 1017.0 | |
| 20260903012036 | 64 | 223 | 0.0 | 2.0 | 0.00 | 0.00 | 0.00 | 67 | 1016.7 |
| 20260903011516 | 64 | 221 | 0.0 | 2.0 | 0.00 | 0.00 | 0.00 | 66 | 1016.6 |